Overview Statistics Trail Chart Weather Telemetry Raw packets
 

This is the latest recevied weather packets stored in our database for station/object KB5DPX. If no packets are shown the sender has not sent any weather packets the latest 10 day(s).

<< 3 4 5 6 7 8 9 >>
Time Temp. Humidity Pressure Rain* Wind** Luminosity Snow
1788539918 20.56° C 84% 1015.9 hPa 0 mm - 199 W/m² -
1788539606 20.56° C 84% 1015.9 hPa 0 mm - 213 W/m² -
1788539322 20.56° C 84% 1015.8 hPa 0 mm - 250 W/m² -
1788539013 20.56° C 84% 1015.7 hPa 0 mm - 225 W/m² -
1788538716 20.56° C 84% 1015.8 hPa 0 mm - 214 W/m² -
1788538422 20.56° C 85% 1015.5 hPa 0 mm - 452 W/m² -
1788538109 20.56° C 84% 1015.7 hPa 0 mm - 313 W/m² -
1788537801 20.56° C 85% 1015.8 hPa 0 mm - 227 W/m² -
1788537516 20° C 86% 1015.6 hPa 0 mm - 353 W/m² -
1788537200 20° C 86% 1015.4 hPa 0 mm - 366 W/m² -
1788536913 20° C 87% 1015.5 hPa 0 mm - 272 W/m² -
1788536600 19.44° C 86% 1015.6 hPa 0 mm - 315 W/m² -
1788536310 19.44° C 86% 1015.9 hPa 0 mm - 285 W/m² -
1788535700 19.44° C 87% 1016.3 hPa 0 mm - 130 W/m² -
1788535415 19.44° C 87% 1016.4 hPa 0 mm - 120 W/m² -
1788535119 19.44° C 87% 1016.6 hPa 0 mm - 86 W/m² -
1788534802 19.44° C 87% 1016.7 hPa 0 mm - 86 W/m² -
1788534498 19.44° C 87% 1016.7 hPa 0 mm - 100 W/m² -
1788534211 19.44° C 87% 1016.5 hPa 0 mm - 163 W/m² -
1788533928 18.89° C 87% 1016.4 hPa 0 mm - 158 W/m² -
1788533610 18.89° C 86% 1016.7 hPa 0 mm - 132 W/m² -
1788533317 18.89° C 86% 1016.6 hPa 0 mm - 193 W/m² -
1788532416 18.89° C 86% 1016.5 hPa 0 mm - 137 W/m² -
1788532123 18.89° C 85% 1016.5 hPa 0 mm - 120 W/m² -
1788531811 18.89° C 85% 1016.8 hPa 0 mm - 111 W/m² -

* Rain latest hour (hover to see other rain measurements)
** Current wind speed in m/s (hover to see current wind gust speed)